Weather History for KHSE - December, 2011

Change the Weather History Date:

Thursday, December 15, 2011

  Actual Average Record
Temperature  
Mean Temperature 54 °F 49 °F  
Max Temperature 62 °F 56 °F 74 °F (1971)
Min Temperature 45 °F 43 °F 25 °F (1978)
Degree Days  
Heating Degree Days 11 16  
Month to date heating degree days 150 209  
Since 1 July heating degree days 408 527  
Cooling Degree Days 0 0  
Month to date cooling degree days 1 0  
Year to date cooling degree days 2379 1711  
Growing Degree Days 4 (Base 50)    
Moisture  
Dew Point 52 °F    
Average Humidity 81    
Maximum Humidity 93    
Minimum Humidity 69    
Precipitation  
Precipitation 0.00 in 0.14 in 2.13 in (1896)
Month to date precipitation 0.83 2.02  
Year to date precipitation 60.98 55.79  
Snow  
Snow 0.00 in - - ()
Month to date snowfall 0.0  
Since 1 July snowfall 0.0  
Snow Depth 0.00 in    
Sea Level Pressure  
Sea Level Pressure 30.23 in    
Wind  
Wind Speed 6 mph (SW)    
Max Wind Speed 13 mph    
Max Gust Speed 20 mph    
Visibility 10 miles    
Events      
T = Trace of Precipitation, MM = Missing Value Source: NWS Daily Summary

Daily Weather History Graph

Daily Weather History Graph

Search for Another Location

Airport or City:

Trip Planner

Search our weather history database for the weather conditions in past years. The results will help you decide how hot, cold, wet, or windy it might be!

Date:

Astronomy

Dec. 15, 2011 Rise Set
Actual Time 7:03 AM EST 4:51 PM EST
Civil Twilight 6:35 AM EST 5:19 PM EST
Nautical Twilight 6:03 AM EST 5:51 PM EST
Astronomical Twilight 5:32 AM EST 6:22 PM EST
Moon 10:05 PM EST (12/15) 10:27 AM EST (12/15)
Length of Visible Light 10h 44m
Length of Day
9h 48m
Waning Gibbous, 75% of the Moon is Illuminated
Dec 15
Waning Gibbous
Dec 17
Last Quarter
Dec 24
New
Jan 1
First Quarter
Jan 9
Full

Hourly Weather History & Observations

Time (EST) Temp. Dew Point Humidity Pressure Visibility Wind Dir Wind Speed Gust Speed Precip Events Conditions
12:51 AM 51.1 °F 48.0 °F 89% 30.33 in 10.0 mi North 3.5 mph - N/A   Clear
1:51 AM 51.1 °F 48.0 °F 89% 30.30 in 10.0 mi NE 5.8 mph - N/A   Clear
2:51 AM 51.1 °F 48.0 °F 89% 30.29 in 10.0 mi NNE 3.5 mph - N/A   Clear
3:51 AM 50.0 °F 46.9 °F 89% 30.28 in 10.0 mi NE 4.6 mph - N/A   Clear
4:51 AM 50.0 °F 48.0 °F 93% 30.29 in 10.0 mi North 4.6 mph - N/A   Clear
5:51 AM 51.1 °F 48.0 °F 89% 30.29 in 10.0 mi North 3.5 mph - N/A   Clear
6:51 AM 46.9 °F 45.0 °F 93% 30.31 in 8.0 mi Calm Calm - N/A   Clear
7:51 AM 48.0 °F 46.0 °F 93% 30.31 in 8.0 mi Calm Calm - N/A   Clear
8:51 AM 55.9 °F 50.0 °F 80% 30.32 in 10.0 mi Calm Calm - N/A   Clear
9:51 AM 55.0 °F 50.0 °F 83% 30.32 in 10.0 mi Calm Calm - N/A   Clear
10:51 AM 59.0 °F 50.0 °F 72% 30.30 in 10.0 mi ESE 5.8 mph - N/A   Clear
11:51 AM 61.0 °F 50.0 °F 67% 30.27 in 10.0 mi SE 4.6 mph - N/A   Clear
12:51 PM 61.0 °F 51.1 °F 70% 30.24 in 10.0 mi SSE 3.5 mph - N/A   Clear
1:51 PM 61.0 °F 53.1 °F 75% 30.21 in 10.0 mi South 5.8 mph - N/A   Clear
2:51 PM 62.1 °F 54.0 °F 75% 30.19 in 10.0 mi South 8.1 mph - N/A   Clear
3:51 PM 61.0 °F 53.1 °F 75% 30.17 in 10.0 mi SW 8.1 mph - N/A   Clear
4:05 PM 59.0 °F 53.6 °F 82% - - North - - N/A   Unknown
4:51 PM 59.0 °F 54.0 °F 83% 30.17 in 10.0 mi SW 8.1 mph - N/A   Clear
5:51 PM 60.1 °F 55.0 °F 83% 30.17 in 10.0 mi SW 9.2 mph - N/A   Clear
6:51 PM 60.1 °F 55.0 °F 83% 30.17 in 10.0 mi SW 8.1 mph - N/A   Clear
7:51 PM 60.1 °F 55.0 °F 83% 30.17 in 10.0 mi SW 10.4 mph - N/A   Clear
8:51 PM 60.1 °F 55.9 °F 86% 30.14 in 10.0 mi SW 9.2 mph - N/A   Clear
9:51 PM 61.0 °F 55.9 °F 83% 30.12 in 10.0 mi SW 11.5 mph - N/A   Clear
10:51 PM 62.1 °F 57.0 °F 84% 30.13 in 10.0 mi WSW 11.5 mph 19.6 mph N/A   Clear
11:51 PM 61.0 °F 57.0 °F 87% 30.14 in 10.0 mi WSW 10.4 mph - N/A   Clear